GW3270 Weather Reports


time (UTC)temp
F
wind
direction
speed
knots
gust
knots
rain 1hr
in
rain 24hr
in
rain mn
in
humidity
%
barometer
mb
20260906114358 67 210 0.9 1.7 0.00 0.06 0.06 99 1018.8
20260906113854 67 260 0.0 1.7 0.00 0.06 0.06 99 1018.5
20260906113352 67 286 0.0 0.9 0.00 0.06 0.06 99 1018.5
20260906112848 67 200 1.7 1.7 0.00 0.06 0.06 99 1018.6
20260906112343 67 310 0.0 1.7 0.00 0.06 0.06 99 1018.4
20260906111838 67 219 0.0 1.7 0.00 0.06 0.06 99 1018.4
20260906111338 67 238 0.0 1.7 0.00 0.06 0.06 99 1018.4
20260906110833 67 242 0.9 1.7 0.00 0.06 0.06 99 1018.1
20260906110329 67 258 0.0 1.7 0.00 0.06 0.06 99 1018.3
20260906105827 68 192 0.0 1.7 0.00 0.06 0.06 99 1018.4
20260906105323 68 196 0.0 1.7 0.02 0.06 0.06 99 1018.4
20260906104819 68 207 0.0 1.7 0.02 0.06 0.06 99 1018.3
20260906104318 68 191 1.7 1.7 0.00 0.06 0.06 99 1017.9
20260906103816 68 238 0.0 1.7 0.00 0.06 0.06 99 1018.1
20260906103315 68 266 0.0 1.7 0.00 0.06 0.06 99 1017.8
20260906102811 68 238 0.0 1.7 0.00 0.06 0.06 99 1017.8
20260906102310 68 229 0.0 1.7 0.00 0.06 0.06 99 1018.1
20260906101805 68 208 1.7 1.7 0.00 0.06 0.06 99 1017.9
20260906101300 68 224 0.0 1.7 0.00 0.06 0.06 99 1018.1
20260906100756 69 205 1.7 1.7 0.00 0.06 0.06 99 1018.1
20260906100255 69 210 1.7 1.7 0.00 0.06 0.06 99 1018.3
20260906095750 69 168 1.7 1.7 0.00 0.06 0.06 99 1018.0
20260906095245 69 224 0.0 1.7 0.00 0.06 0.06 99 1018.0
20260906094744 69 203 0.0 1.7 0.00 0.06 0.06 99 1017.8
20260906094240 69 12 0.0 1.7 0.00 0.06 0.06 99 1018.0
20260906093736 69 180 0.0 2.6 0.00 0.06 0.06 99 1018.3
20260906093231 69 212 1.7 2.6 0.00 0.06 0.06 99 1018.3
20260906092727 70 209 0.9 1.7 0.00 0.06 0.06 99 1018.0
20260906092226 70 141 0.0 1.7 0.00 0.06 0.06 99 1018.1
20260906091722 70 251 0.0 1.7 0.00 0.06 0.06 99 1018.1
20260906091218 70 261 1.7 2.6 0.00 0.06 0.06 99 1018.0
20260906090715 70 214 0.9 2.6 0.00 0.06 0.06 99 1018.1
20260906090214 70 195 0.9 1.7 0.00 0.06 0.06 99 1018.1
20260906085713 71 237 1.7 2.6 0.00 0.06 0.06 99 1018.3
20260906085212 71 266 0.9 1.7 0.00 0.06 0.06 99 1018.4
20260906084706 71 284 0.9 1.7 0.00 0.06 0.06 99 1018.4
20260906084201 71 167 0.0 1.7 0.00 0.06 0.06 99 1018.1
20260906083656 71 227 1.7 2.6 0.00 0.06 0.06 99 1018.1
20260906083151 71 185 0.9 1.7 0.00 0.06 0.06 99 1018.3
20260906082646 71 210 1.7 1.7 0.00 0.06 0.06 99 1018.3
20260906082142 71 256 1.7 1.7 0.00 0.06 0.06 99 1018.1
20260906081637 71 180 0.9 1.7 0.00 0.06 0.06 99 1018.4
20260906081132 71 152 0.0 1.7 0.00 0.06 0.06 99 1018.3
20260906080628 71 96 0.9 1.7 0.00 0.06 0.06 99 1017.9
20260906080125 71 97 0.0 1.7 0.00 0.06 0.06 99 1017.8
20260906075624 71 213 0.0 1.7 0.00 0.06 0.06 98 1018.0
20260906075119 71 249 0.9 2.6 0.00 0.06 0.06 98 1017.8
20260906074614 71 227 1.7 3.5 0.00 0.06 0.06 98 1018.3
20260906074113 71 254 1.7 2.6 0.00 0.06 0.06 98 1018.0
20260906073608 71 257 1.7 2.6 0.00 0.06 0.06 98 1018.0
20260906073104 71 251 0.9 1.7 0.00 0.06 0.06 98 1017.9
20260906072558 71 228 0.9 1.7 0.00 0.06 0.06 98 1017.8
20260906072054 71 239 0.9 1.7 0.00 0.06 0.06 98 1017.7
20260906071551 71 150 0.0 1.7 0.00 0.06 0.06 98 1017.6
20260906071045 72 237 1.7 1.7 0.00 0.06 0.06 98 1017.4
20260906070542 72 207 0.9 1.7 0.00 0.06 0.06 98 1017.6
20260906070037 72 246 1.7 2.6 0.00 0.06 0.06 98 1017.8
20260906065537 72 252 0.9 2.6 0.00 0.06 0.06 98 1017.9
20260906065032 72 237 0.9 1.7 0.00 0.06 0.06 98 1017.8
20260906064528 72 213 1.7 1.7 0.00 0.06 0.06 98 1018.1
20260906064023 72 211 1.7 2.6 0.00 0.06 0.06 98 1018.4
20260906063518 72 211 1.7 1.7 0.00 0.06 0.06 98 1018.4
20260906063014 72 241 1.7 1.7 0.00 0.06 0.06 98 1018.5
20260906062509 72 226 0.9 1.7 0.00 0.06 0.06 98 1018.5
20260906062003 73 212 1.7 1.7 0.00 0.06 0.06 98 1018.4
20260906061453 73 206 0.9 1.7 0.00 0.06 0.06 98 1018.5
20260906060948 73 228 1.7 1.7 0.02 0.06 0.06 98 1018.8
20260906060445 73 237 0.9 1.7 0.02 0.06 0.06 98 1018.6
20260906055941 73 226 1.7 2.6 0.00 0.05 0.05 97 1018.7
20260906055437 73 215 1.7 1.7 0.00 0.05 0.05 97 1018.8
20260906054932 73 224 0.9 1.7 0.00 0.05 0.05 97 1018.8
20260906054427 73 227 1.7 2.6 0.05 0.05 0.05 97 1019.0
20260906053922 73 213 1.7 3.5 0.07 0.05 0.05 97 1019.2
20260906053418 73 233 1.7 1.7 0.05 0.04 0.04 97 1019.2
20260906052914 73 278 0.0 1.7 0.05 0.04 0.04 96 1018.3
20260906052410 73 217 1.7 1.7 0.07 0.03 0.03 96 1018.3
20260906051907 74 210 2.6 3.5 0.09 0.03 0.03 95 1018.5
20260906051407 74 225 3.5 3.5 0.12 0.02 0.02 94 1019.1
20260906050902 74 212 0.0 2.6 0.05 0.01 0.01 93 1019.4
20260906050357 74 192 1.7 5.2 0.00 0.00 0.00 93 1019.3
20260906045856 74 299 0.0 2.6 0.00 0.00 0.00 95 1019.6
20260906045355 73 221 3.5 3.5 0.00 0.00 0.00 96 1019.2
20260906044851 73 210 1.7 3.5 0.00 0.00 0.00 97 1019.4
20260906044346 72 266 0.9 0.9 0.00 0.00 0.00 97 1018.6
20260906043842 72 263 1.7 1.7 0.00 0.00 0.00 97 1018.5
20260906043338 72 246 0.9 1.7 0.00 0.00 0.00 97 1018.0
20260906042833 72 271 0.0 1.7 0.00 0.00 0.00 97 1018.0
20260906042331 72 229 0.0 0.9 0.00 0.00 0.00 97 1018.3
20260906041827 72 213 1.7 1.7 0.00 0.00 0.00 97 1018.3
20260906041322 72 223 0.9 1.7 0.00 0.00 0.00 97 1018.6
20260906040817 72 244 0.0 0.9 0.00 0.00 0.00 97 1018.7
20260906040312 72 166 0.0 0.9 0.00 0.00 0.00 97 1018.7
20260906035813 72 241 0.9 1.7 0.00 0.00 0.00 97 1019.1
20260906035308 72 247 0.9 1.7 0.00 0.00 0.00 97 1019.3
20260906034803 72 191 0.9 1.7 0.00 0.00 0.00 97 1019.2
20260906034258 72 198 0.0 0.9 0.00 0.00 0.00 97 1019.1
20260906033754 73 253 0.9 0.9 0.00 0.00 0.00 97 1019.2
20260906033253 72 157 0.0 0.0 0.00 0.00 0.00 97 1019.0
20260906032749 73 217 0.0 0.9 0.00 0.00 0.00 97 1018.8
20260906032250 73 210 0.0 0.9 0.00 0.00 0.00 97 1018.7
20260906031744 73 235 0.0 1.7 0.00 0.00 0.00 97 1018.8
20260906031241 73 214 1.7 1.7 0.00 0.00 0.00 97 1018.8
20260906030735 73 211 0.9 1.7 0.00 0.00 0.00 97 1018.8
20260906030230 73 242 0.0 0.0 0.00 0.00 0.00 97 1018.8
20260906025729 0 0.0 0.0 0.00 0.00 0.00 1018.7
20260906025229 0 0.0 0.0 0.00 0.00 0.00 1019.0
20260906024728 73 297 0.0 0.0 0.00 0.00 0.00 96 1018.5
20260906024227 73 297 0.0 0.0 0.00 0.00 0.00 96 1018.5
20260906023723 0 0.0 0.0 0.00 0.00 0.00 1018.6
20260906023218 0 0.0 0.0 0.00 0.00 0.00 1018.4
20260906022714 0 0.0 0.0 0.00 0.00 0.00 1018.3
20260906022209 0 0.0 0.0 0.00 0.00 0.00 1018.3
20260906021705 73 228 1.7 1.7 0.00 0.00 0.00 96 1018.0
20260906021203 73 228 1.7 1.7 0.00 0.00 0.00 96 1018.3
20260906020658 73 205 0.9 1.7 0.00 0.00 0.00 96 1017.8
20260906020153 74 220 0.9 0.9 0.00 0.00 0.00 96 1017.8
20260906015647 74 212 0.9 0.9 0.00 0.00 0.00 96 1017.8
20260906015146 74 205 0.0 0.0 0.00 0.00 0.00 95 1017.9
20260906014641 74 140 0.0 0.9 0.00 0.00 0.00 95 1017.7
20260906014137 74 246 0.9 1.7 0.00 0.00 0.00 95 1017.7
20260906013632 74 231 0.9 1.7 0.00 0.00 0.00 95 1017.7
20260906013127 74 142 0.0 0.9 0.00 0.00 0.00 95 1017.8
20260906012622 74 251 0.0 0.9 0.00 0.00 0.00 94 1017.6
20260906012117 74 193 0.0 1.7 0.00 0.00 0.00 94 1017.5
20260906011612 75 249 0.9 1.7 0.00 0.00 0.00 94 1017.5
20260906011107 75 254 0.9 1.7 0.00 0.00 0.00 93 1017.5
20260906010603 75 180 0.0 0.9 0.00 0.00 0.00 93 1017.8
20260906010059 75 200 0.9 1.7 0.00 0.00 0.00 93 1017.8
20260906005558 75 238 1.7 1.7 0.00 0.00 0.00 92 1017.7
20260906005056 76 174 0.0 0.0 0.00 0.00 0.00 92 1017.8
20260906004556 76 193 0.0 1.7 0.00 0.00 0.00 92 1018.0
20260906004051 76 245 1.7 1.7 0.00 0.00 0.00 91 1018.0
20260906003546 76 216 1.7 1.7 0.00 0.00 0.00 90 1018.0
20260906003042 76 238 1.7 1.7 0.00 0.00 0.00 90 1018.0
20260906002537 77 233 0.9 1.7 0.00 0.00 0.00 89 1017.7
20260906002032 77 227 0.9 1.7 0.00 0.00 0.00 89 1018.3
20260906001527 77 228 0.9 1.7 0.00 0.00 0.00 89 1018.0
20260906001021 78 254 0.9 1.7 0.00 0.00 0.00 88 1018.0
20260906000518 78 241 1.7 1.7 0.00 0.00 0.00 88 1018.1
20260906000018 78 208 1.7 1.7 0.00 0.00 0.00 87 1017.9
20260905235511 78 250 2.6 2.6 0.00 0.00 0.00 87 1018.0
20260905235007 79 242 0.9 1.7 0.00 0.00 0.00 87 1018.3
20260905234502 79 195 0.0 0.0 0.00 0.00 0.00 86 1017.8
20260905233956 80 258 0.9 1.7 0.00 0.00 0.00 86 1017.7
20260905233452 80 245 1.7 1.7 0.00 0.00 0.00 86 1017.8
20260905232950 80 233 1.7 1.7 0.00 0.00 0.00 85 1017.7
20260905232447 80 194 0.0 1.7 0.00 0.00 0.00 87 1017.8
20260905231943 80 252 0.9 1.7 0.00 0.00 0.00 85 1017.6
20260905231438 80 233 1.7 1.7 0.00 0.00 0.00 84 1017.5
20260905230934 81 233 1.7 1.7 0.00 0.00 0.00 83 1017.4
20260905230433 81 236 1.7 1.7 0.00 0.00 0.00 83 1017.5
20260905225931 81 249 1.7 1.7 0.00 0.00 0.00 83 1017.5
20260905225426 81 254 1.7 2.6 0.00 0.00 0.00 82 1017.7
20260905224921 81 232 1.7 1.7 0.00 0.00 0.00 82 1017.7
20260905224417 81 245 1.7 1.7 0.00 0.00 0.00 81 1017.5
20260905223917 82 251 1.7 1.7 0.00 0.00 0.00 82 1017.7
20260905223415 82 246 1.7 2.6 0.00 0.00 0.00 81 1017.5
20260905222915 82 245 1.7 1.7 0.00 0.00 0.00 81 1017.6
20260905222414 82 257 1.7 1.7 0.00 0.00 0.00 81 1017.5
20260905221910 82 238 2.6 2.6 0.00 0.00 0.00 80 1017.8
20260905221407 82 243 1.7 2.6 0.00 0.00 0.00 81 1017.7
20260905220902 82 239 1.7 2.6 0.00 0.00 0.00 81 1017.8
20260905220358 82 236 1.7 1.7 0.00 0.00 0.00 80 1018.0
20260905215857 82 247 1.7 2.6 0.00 0.00 0.00 79 1017.8
20260905215353 83 255 1.7 1.7 0.00 0.00 0.00 78 1017.9
20260905214849 83 253 0.9 2.6 0.00 0.00 0.00 76 1017.7
20260905214344 83 232 1.7 1.7 0.00 0.00 0.00 79 1017.7
20260905213839 83 229 1.7 1.7 0.00 0.00 0.00 78 1017.8
20260905213336 83 239 1.7 2.6 0.00 0.00 0.00 78 1017.9
20260905212835 83 233 1.7 2.6 0.00 0.00 0.00 79 1018.3
20260905212330 83 227 1.7 2.6 0.00 0.00 0.00 77 1018.3
20260905211824 84 238 1.7 2.6 0.00 0.00 0.00 76 1018.3
20260905211320 84 237 1.7 1.7 0.00 0.00 0.00 76 1018.0
20260905210817 84 236 1.7 2.6 0.00 0.00 0.00 74 1018.3
20260905210316 85 243 2.6 2.6 0.00 0.00 0.00 74 1018.3
20260905205815 86 235 1.7 2.6 0.00 0.00 0.00 71 1018.0
20260905205310 88 238 1.7 2.6 0.00 0.00 0.00 66 1018.4
20260905204809 89 240 2.6 3.5 0.00 0.00 0.00 64 1018.5
20260905204305 88 277 1.7 3.5 0.00 0.00 0.00 63 1018.4
20260905203804 87 259 1.7 1.7 0.00 0.00 0.00 66 1018.6
20260905203300 87 164 2.6 2.6 0.00 0.00 0.00 67 1018.9
20260905202755 87 283 1.7 2.6 0.00 0.00 0.00 67 1018.9
20260905202250 86 267 1.7 3.5 0.00 0.00 0.00 68 1018.7
20260905201745 85 284 0.0 3.5 0.00 0.00 0.00 72 1018.9
20260905201240 83 315 0.9 2.6 0.00 0.00 0.00 75 1019.1
20260905200736 81 214 0.0 1.7 0.00 0.00 0.00 76 1018.8
20260905200231 81 233 1.7 2.6 0.00 0.00 0.00 80 1018.8
20260905195729 81 245 1.7 1.7 0.00 0.00 0.00 81 1018.9
20260905195224 81 221 1.7 1.7 0.00 0.00 0.00 82 1018.9
20260905194720 81 235 1.7 2.6 0.00 0.00 0.00 81 1018.9
20260905194220 82 235 1.7 2.6 0.00 0.00 0.00 82 1018.8
20260905193719 82 233 1.7 1.7 0.00 0.00 0.00 81 1018.7
20260905193214 82 218 1.7 1.7 0.00 0.00 0.00 79 1018.6
20260905192709 83 240 0.9 1.7 0.00 0.00 0.00 76 1018.9
20260905192206 84 245 1.7 2.6 0.00 0.00 0.00 75 1019.0
20260905191705 84 253 1.7 1.7 0.00 0.00 0.00 73 1018.9
20260905191203 85 242 1.7 1.7 0.00 0.00 0.00 72 1018.9
20260905190702 85 249 1.7 1.7 0.00 0.00 0.00 71 1019.0
20260905190201 86 256 1.7 1.7 0.00 0.00 0.00 70 1019.2
20260905185700 87 358 0.0 2.6 0.00 0.00 0.00 65 1019.1
20260905185155 88 227 3.5 3.5 0.00 0.00 0.00 65 1019.2
20260905184654 88 231 0.0 3.5 0.00 0.00 0.00 65 1019.3
20260905184153 89 219 1.7 2.6 0.00 0.00 0.00 61 1019.1
20260905183648 90 220 1.7 3.5 0.00 0.00 0.00 59 1018.9
20260905183143 89 212 1.7 2.6 0.00 0.00 0.00 63 1018.7
20260905182642 89 183 0.0 1.7 0.00 0.00 0.00 60 1019.2
20260905182137 90 233 1.7 2.6 0.00 0.00 0.00 57 1019.1
20260905181632 92 218 1.7 2.6 0.00 0.00 0.00 54 1019.2
20260905181131 91 245 3.5 5.2 0.00 0.00 0.00 55 1019.2
20260905180626 90 238 3.5 4.3 0.00 0.00 0.00 61 1019.5
20260905180121 90 261 1.7 2.6 0.00 0.00 0.00 62 1019.2
20260905175620 90 262 3.5 3.5 0.00 0.00 0.00 64 1019.7
20260905175116 89 225 1.7 3.5 0.00 0.00 0.00 64 1019.5
20260905174612 89 243 2.6 2.6 0.00 0.00 0.00 60 1019.4
20260905174107 90 249 1.7 1.7 0.00 0.00 0.00 57 1019.5
20260905173603 90 250 1.7 1.7 0.00 0.00 0.00 54 1019.4
20260905173058 89 231 2.6 3.5 0.00 0.00 0.00 62 1019.5
20260905172557 88 231 2.6 3.5 0.00 0.00 0.00 65 1019.7
20260905172052 89 262 0.9 2.6 0.00 0.00 0.00 66 1019.5
20260905171549 89 251 1.7 2.6 0.00 0.00 0.00 62 1019.6
20260905171044 89 260 1.7 1.7 0.00 0.00 0.00 59 1019.7
20260905170541 90 199 2.6 4.3 0.00 0.00 0.00 58 1019.9
20260905170036 90 200 2.6 3.5 0.00 0.00 0.00 57 1019.9
20260905165530 89 235 0.0 2.6 0.00 0.00 0.00 57 1019.9
20260905165025 90 206 2.6 3.5 0.00 0.00 0.00 59 1020.0
20260905164520 89 185 1.7 3.5 0.00 0.00 0.00 59 1020.0
20260905164015 89 191 1.7 3.5 0.00 0.00 0.00 60 1020.3
20260905163511 88 213 2.6 4.3 0.00 0.00 0.00 60 1020.3
20260905163007 88 216 1.7 3.5 0.00 0.00 0.00 60 1020.5
20260905162503 89 251 2.6 3.5 0.00 0.00 0.00 61 1020.5
20260905161957 89 218 3.5 3.5 0.00 0.00 0.00 60 1020.3
20260905161456 88 244 3.5 3.5 0.00 0.00 0.00 64 1020.7
20260905160954 88 235 5.2 6.1 0.00 0.00 0.00 63 1020.3
20260905160453 88 246 2.6 2.6 0.00 0.00 0.00 68 1020.6
20260905155948 88 237 1.7 3.5 0.00 0.00 0.00 67 1020.4
20260905155443 88 248 2.6 3.5 0.00 0.00 0.00 66 1020.4
20260905154942 87 222 2.6 3.5 0.00 0.00 0.00 69 1020.5
20260905154437 87 236 2.6 3.5 0.00 0.00 0.00 69 1020.5
20260905153932 88 222 1.7 2.6 0.00 0.00 0.00 65 1020.4
20260905153429 87 237 1.7 2.6 0.00 0.00 0.00 62 1020.7
20260905152928 87 209 1.7 3.5 0.00 0.00 0.00 70 1020.7
20260905152428 88 180 0.0 1.7 0.00 0.00 0.00 64 1020.8
20260905151923 86 220 1.7 2.6 0.00 0.00 0.00 69 1020.5
20260905151419 84 235 1.7 2.6 0.00 0.00 0.00 75 1020.7
20260905150918 83 242 2.6 3.5 0.00 0.00 0.00 76 1020.7
20260905150413 83 234 1.7 2.6 0.00 0.00 0.00 75 1021.2
20260905145910 82 228 2.6 2.6 0.00 0.00 0.00 78 1020.7
20260905145410 81 231 1.7 2.6 0.00 0.00 0.00 79 1021.0
20260905144909 82 229 2.6 2.6 0.00 0.00 0.00 78 1020.7
20260905144405 82 219 2.6 3.5 0.00 0.00 0.00 75 1020.9
20260905143903 81 214 1.7 1.7 0.00 0.00 0.00 79 1020.6
20260905143357 80 221 2.6 2.6 0.00 0.00 0.00 85 1020.9
20260905142851 79 238 2.6 2.6 0.00 0.00 0.00 86 1020.8
20260905142344 78 237 2.6 2.6 0.00 0.00 0.00 87 1020.7
20260905141841 78 231 1.7 1.7 0.00 0.00 0.00 87 1020.7
20260905141336 77 231 1.7 2.6 0.00 0.00 0.00 89 1020.8
20260905140832 77 238 1.7 1.7 0.00 0.00 0.00 89 1020.7
20260905140332 77 231 1.7 1.7 0.00 0.00 0.00 90 1020.9
20260905135830 76 207 0.9 1.7 0.00 0.00 0.00 91 1020.8
20260905135326 75 230 0.0 0.9 0.00 0.00 0.00 92 1021.0
20260905134821 75 243 0.9 1.7 0.00 0.00 0.00 91 1021.2
20260905134315 74 261 0.0 1.7 0.00 0.00 0.00 92 1020.9
20260905133814 74 243 1.7 1.7 0.00 0.00 0.00 92 1021.0
20260905133310 74 240 0.9 1.7 0.00 0.00 0.00 92 1021.2
20260905132809 73 210 1.7 1.7 0.00 0.00 0.00 93 1021.1
20260905132306 73 238 0.9 1.7 0.00 0.00 0.00 94 1021.1
20260905131759 73 243 0.9 1.7 0.00 0.00 0.00 94 1021.1
20260905131254 72 250 0.0 1.7 0.00 0.00 0.00 95 1020.9
20260905130749 72 202 0.0 1.7 0.00 0.00 0.00 95 1021.0
20260905130248 71 238 0.0 1.7 0.00 0.00 0.00 95 1021.3
20260905125744 71 285 0.0 1.7 0.00 0.00 0.00 96 1021.2
20260905125238 71 218 0.9 0.9 0.00 0.00 0.00 96 1021.2
20260905124735 70 230 1.7 1.7 0.00 0.00 0.00 97 1021.3
20260905124231 70 228 0.0 1.7 0.00 0.00 0.00 97 1021.2
20260905123726 69 154 0.0 1.7 0.00 0.00 0.00 96 1021.2
20260905123223 69 164 0.9 1.7 0.00 0.00 0.00 97 1021.2
20260905122722 69 140 0.0 1.7 0.00 0.00 0.00 97 1021.2
20260905122217 69 142 0.0 1.7 0.00 0.00 0.00 97 1021.0
20260905121712 68 215 0.0 1.7 0.00 0.00 0.00 97 1020.8
20260905121209 68 336 0.9 1.7 0.00 0.00 0.00 98 1020.6
20260905120707 68 284 0.0 0.9 0.00 0.00 0.00 98 1020.8
20260905120202 68 225 0.0 1.7 0.00 0.00 0.00 98 1020.7
20260905115701 68 269 0.0 0.9 0.00 0.00 0.00 98 1020.8
20260905115156 67 212 0.0 1.7 0.00 0.00 0.00 98 1020.8
20260905114656 67 346 0.0 1.7 0.00 0.00 0.00 98 1020.8